Date String (YYYY-MM-DD hh:mm:ss) UTC,Instrument flags,absolute air pressure of the measurement (hPa),sample flow rate (lpm),inlet stack bypass flow (lpm),air temperature of the measurement (°C),ambient temperature measured by the external sensor (°C),aerosol sample conditioner tube jacket temperature (°C),OPC LED temperature (°C),internal box temperature (°C),relative humidity of the measurement (%),span deviation,mass concentration of particles derived from Lorenz-Mie calculation of OPC scattering (μg/m³),mass concentration of particles derived from Lorenz-Mie calculation of OPC scattering (μg/m³),mass concentration of particles derived from Lorenz-Mie calculation of OPC scattering (μg/m³)
DateTimeUTC,F1_M11,P_M11,Q1_M11,Q2_M11,T1_M11,T2_M11,T3_M11,T4_M11,T5_M11,U1_M11,ZSPAN_M11,X0_M11,X2_M11,X1_M11
2024-05-14 01:00:00,SystemResetWarning,0824.9,5.00,000.00,024.5,024.1,000.0,032.4,026.5,025.5,0000.0,0012.25,0004.27,0003.71
2024-05-14 01:01:00,SystemResetWarning,0824.9,4.99,000.00,024.6,024.1,000.0,032.4,026.5,025.5,0000.0,0012.70,0004.25,0003.70
2024-05-14 01:02:00,SystemResetWarning,0824.8,4.99,000.00,024.4,022.3,000.0,032.5,025.6,025.8,0000.0,0012.36,0004.25,0003.69
2024-05-14 01:03:00,SystemResetWarning,0824.8,5.00,000.00,024.0,020.8,000.0,032.6,024.7,026.4,0000.0,0012.44,0004.29,0003.69
2024-05-14 01:04:00,SystemResetWarning,0824.9,5.01,000.00,023.8,021.0,000.0,032.5,024.7,026.9,0000.0,0012.51,0004.30,0003.68
2024-05-14 01:05:00,SystemResetWarning,0824.9,4.99,000.00,023.8,021.5,000.0,032.4,025.0,027.1,0000.0,0012.39,0004.25,0003.66
2024-05-14 01:06:00,SystemResetWarning,0824.9,4.99,000.00,023.8,021.9,000.0,032.3,025.2,027.1,0000.0,0012.22,0004.23,0003.66
2024-05-14 01:07:00,SystemResetWarning,0824.9,5.01,000.00,023.9,022.3,000.0,032.2,025.5,027.0,0000.0,0011.88,0004.23,0003.66
2024-05-14 01:08:00,SystemResetWarning,0824.9,5.01,000.00,023.9,022.7,000.0,032.2,025.6,027.0,0000.0,0011.19,0004.21,0003.65
2024-05-14 01:09:00,SystemResetWarning,0824.9,5.00,000.00,024.0,023.0,000.0,032.2,025.8,026.6,0000.0,0010.62,0004.25,0003.65
2024-05-14 01:10:00,SystemResetWarning,0824.9,5.00,000.00,024.1,023.3,000.0,032.2,026.0,026.0,0000.0,0009.57,0004.24,0003.64
2024-05-14 01:11:00,SystemResetWarning,0824.9,4.99,000.00,024.2,023.5,000.0,032.2,026.1,025.9,0000.0,0008.67,0004.25,0003.64
2024-05-14 01:12:00,SystemResetWarning,0824.9,4.99,000.00,024.3,023.7,000.0,032.3,026.2,025.4,0000.0,0008.07,0004.27,0003.63
2024-05-14 01:13:00,SystemResetWarning,0825.0,5.00,000.00,024.3,023.9,000.0,032.3,026.3,025.2,0000.0,0007.84,0004.26,0003.62
2024-05-14 01:14:00,SystemResetWarning,0825.1,5.00,000.00,024.4,024.0,000.0,032.3,026.4,025.5,0000.0,0007.80,0004.20,0003.61
2024-05-14 01:15:00,SystemResetWarning,0825.1,5.01,000.00,024.5,024.1,000.0,032.4,026.5,025.3,0000.0,0007.81,0004.17,0003.60
2024-05-14 01:16:00,SystemResetWarning,0825.1,5.00,000.00,024.6,024.0,000.0,032.4,026.4,025.1,0000.0,0008.23,0004.16,0003.60
2024-05-14 01:17:00,SystemResetWarning,0825.0,5.00,000.00,024.3,022.2,000.0,032.5,025.4,025.2,0000.0,0008.77,0004.14,0003.58
2024-05-14 01:18:00,SystemResetWarning,0824.9,5.00,000.00,023.9,020.8,000.0,032.6,024.6,025.6,0000.0,0008.73,0004.14,0003.57
2024-05-14 01:19:00,SystemResetWarning,0824.9,5.02,000.00,023.7,021.0,000.0,032.5,024.6,025.3,0000.0,0009.17,0004.15,0003.56
2024-05-14 01:20:00,SystemResetWarning,0825.0,5.00,000.00,023.7,021.5,000.0,032.4,024.9,025.3,0000.0,0009.25,0004.12,0003.55
2024-05-14 01:21:00,SystemResetWarning,0825.1,5.00,000.00,023.7,021.9,000.0,032.2,025.2,024.6,0000.0,0009.41,0004.10,0003.53
2024-05-14 01:22:00,SystemResetWarning,0825.1,5.00,000.00,023.8,022.3,000.0,032.2,025.4,024.3,0000.0,0009.58,0004.05,0003.52
2024-05-14 01:23:00,SystemResetWarning,0825.1,4.99,000.00,023.9,022.6,000.0,032.2,025.6,024.5,0000.0,0009.50,0004.01,0003.50
2024-05-14 01:24:00,SystemResetWarning,0825.1,5.00,000.00,024.0,022.9,000.0,032.1,025.8,026.3,0000.0,0009.29,0003.97,0003.49
2024-05-14 01:25:00,SystemResetWarning,0825.2,5.00,000.00,024.1,023.2,000.0,032.1,026.0,028.2,0000.0,0009.27,0003.97,0003.49
2024-05-14 01:26:00,SystemResetWarning,0825.2,5.00,000.00,024.2,023.4,000.0,032.2,026.1,028.4,0000.0,0009.81,0003.99,0003.51
2024-05-14 01:27:00,SystemResetWarning,0825.2,4.99,000.00,024.2,023.6,000.0,032.2,026.2,027.4,0000.0,0009.55,0004.04,0003.53
2024-05-14 01:28:00,SystemResetWarning,0825.2,5.00,000.00,024.3,023.8,000.0,032.2,026.3,027.0,0000.0,0009.29,0004.09,0003.55
2024-05-14 01:29:00,SystemResetWarning,0825.2,5.00,000.00,024.4,024.0,000.0,032.3,026.4,025.9,0000.0,0010.82,0004.13,0003.58
2024-05-14 01:30:00,SystemResetWarning,0825.2,5.00,000.00,024.5,024.1,000.0,032.3,026.5,026.1,0000.0,0010.58,0004.18,0003.60
2024-05-14 01:31:00,SystemResetWarning,0825.2,5.00,000.00,024.6,024.2,000.0,032.4,026.6,026.7,0000.0,0010.48,0004.20,0003.63
2024-05-14 01:32:00,SystemResetWarning,0825.2,5.00,000.00,024.7,024.1,000.0,032.5,026.5,027.9,0000.0,0010.28,0004.22,0003.66
2024-05-14 01:33:00,SystemResetWarning,0825.1,5.00,000.00,024.4,022.4,000.0,032.6,025.5,028.9,0000.0,0010.73,0004.26,0003.70
2024-05-14 01:34:00,SystemResetWarning,0825.1,5.02,000.00,024.1,021.8,000.0,032.6,025.1,029.2,0000.0,0010.92,0004.33,0003.75
2024-05-14 01:35:00,SystemResetWarning,0825.1,5.00,000.00,024.1,022.1,000.0,032.5,025.2,028.0,0000.0,0011.51,0004.45,0003.81
2024-05-14 01:36:00,SystemResetWarning,0825.1,5.00,000.00,024.1,022.4,000.0,032.4,025.5,027.2,0000.0,0012.67,0004.48,0003.84
2024-05-14 01:37:00,SystemResetWarning,0825.2,5.00,000.00,024.1,022.8,000.0,032.4,025.7,026.5,0000.0,0012.34,0004.47,0003.84
2024-05-14 01:38:00,SystemResetWarning,0825.1,4.99,000.00,024.2,023.1,000.0,032.4,026.0,027.4,0000.0,0012.29,0004.45,0003.84
2024-05-14 01:39:00,SystemResetWarning,0825.2,5.01,000.00,024.3,023.3,000.0,032.4,026.1,026.4,0000.0,0012.06,0004.45,0003.85
2024-05-14 01:40:00,SystemResetWarning,0825.2,5.00,000.00,024.4,023.6,000.0,032.4,026.3,026.6,0000.0,0010.53,0004.41,0003.84
2024-05-14 01:41:00,SystemResetWarning,0825.2,5.00,000.00,024.5,023.8,000.0,032.4,026.4,026.4,0000.0,0010.50,0004.36,0003.84
2024-05-14 01:42:00,SystemResetWarning,0825.2,4.99,000.00,024.5,024.0,000.0,032.4,026.5,026.2,0000.0,0010.41,0004.33,0003.84
2024-05-14 01:43:00,SystemResetWarning,0825.3,4.98,000.00,024.6,024.0,000.0,032.5,026.5,025.3,0000.0,0010.41,0004.33,0003.84
2024-05-14 01:44:00,SystemResetWarning,0825.3,5.00,000.00,024.5,022.5,000.0,032.6,025.7,026.4,0000.0,0009.54,0004.30,0003.83
2024-05-14 01:45:00,SystemResetWarning,0825.2,5.00,000.00,024.1,020.7,000.0,032.6,024.7,028.4,0000.0,0009.58,0004.26,0003.82
2024-05-14 01:46:00,SystemResetWarning,0825.3,5.01,000.00,023.8,020.8,000.0,032.6,024.6,028.7,0000.0,0009.75,0004.25,0003.81
2024-05-14 01:47:00,SystemResetWarning,0825.2,5.01,000.00,023.7,021.2,000.0,032.4,024.8,028.7,0000.0,0008.51,0004.25,0003.82
2024-05-14 01:48:00,SystemResetWarning,0825.2,5.00,000.00,023.7,021.6,000.0,032.3,025.1,027.5,0000.0,0008.88,0004.27,0003.83
2024-05-14 01:49:00,SystemResetWarning,0825.2,4.99,000.00,023.8,022.1,000.0,032.2,025.3,026.8,0000.0,0008.90,0004.30,0003.83
2024-05-14 01:50:00,SystemResetWarning,0825.2,4.99,000.00,023.9,022.5,000.0,032.2,025.5,027.2,0000.0,0008.86,0004.31,0003.83
2024-05-14 01:51:00,SystemResetWarning,0825.2,5.00,000.00,023.9,022.8,000.0,032.2,025.7,027.7,0000.0,0008.80,0004.30,0003.83
2024-05-14 01:52:00,SystemResetWarning,0825.3,5.01,000.00,024.0,023.1,000.0,032.2,025.9,027.7,0000.0,0008.68,0004.31,0003.84
2024-05-14 01:53:00,SystemResetWarning,0825.3,5.01,000.00,024.1,023.3,000.0,032.2,026.0,028.0,0000.0,0008.73,0004.32,0003.85
2024-05-14 01:54:00,SystemResetWarning,0825.3,5.00,000.00,024.2,023.5,000.0,032.2,026.1,027.2,0000.0,0008.88,0004.38,0003.86
2024-05-14 01:55:00,SystemResetWarning,0825.3,4.99,000.00,024.3,023.7,000.0,032.2,026.2,026.9,0000.0,0008.99,0004.40,0003.87
2024-05-14 01:56:00,SystemResetWarning,0825.4,4.99,000.00,024.4,023.9,000.0,032.3,026.3,028.1,0000.0,0008.84,0004.37,0003.86
2024-05-14 01:57:00,SystemResetWarning,0825.4,5.00,000.00,024.4,024.0,000.0,032.3,026.4,027.5,0000.0,0008.92,0004.34,0003.85
2024-05-14 01:58:00,SystemResetWarning,0825.5,5.00,000.00,024.5,024.1,000.0,032.4,026.5,028.2,0000.0,0008.99,0004.35,0003.83
2024-05-14 01:59:00,SystemResetWarning,0825.5,5.00,000.00,024.6,024.2,000.0,032.4,026.6,028.8,0000.0,0008.62,0004.38,0003.83
